Voltar ao catálogo

STARLINK-31142

AtivoComunicaçõesVLEO
NORAD 58779·PAYLOAD·🇺🇸 United States

Lançado Jan 14, 2024 de Vandenberg Space Force Base

Loading…

Próximas Passagens (próximas 24 horas)

TLE

AtualizadoSource: CelesTrak SupGP

Época: Sep 14, 2026, 20:42 UTC

1 58779C 24011Q   26257.86298611  .00038308  00000+0  11316-2 0  2579
2 58779  53.1580 213.8711 0001271 102.0228  96.8291 15.34376677    14

Acompanhe STARLINK-31142 em tempo real com AllMySat

Download on the App Store